Location: Alfortville
(48.8058°N, 2.4204°E)
Time: 01:52:15
(UTC+00:00)

Envisat - Pass Details

Date: 29 November 2022
Orbit: 763 x 765 km, 98.2° (Epoch: 28 January)

Event Time Altitude Azimuth Distance (km) Brightness Sun altitude
Rises 16:27:38 0° 210° (SSW) 3,220 7.3 -5.1°
Reaches altitude 10° 16:30:42 10° 230° (SW) 2,300 7.1 -5.6°
Maximum altitude 16:34:02 17° 271° (W) 1,845 6.0 -6.1°
Drops below altitude 10° 16:37:22 10° 313° (NW) 2,313 5.8 -6.6°
Sets 16:40:29 0° 333° (NNW) 3,245 6.3 -7.0°
